TimeEST,TemperatureF,Dew PointF,Humidity,Sea Level PressureIn,VisibilityMPH,Wind Direction,Wind SpeedMPH,Gust SpeedMPH,PrecipitationIn,Events,Conditions,WindDirDegrees,DateUTC
12:54 AM,33.1,19.0,56,29.93,10.0,NNW,12.7,-,N/A,,Overcast,340,2008-12-07 05:54:00
1:54 AM,33.1,19.0,56,29.92,10.0,North,10.4,-,N/A,,Overcast,350,2008-12-07 06:54:00
2:54 AM,32.0,17.1,54,29.93,10.0,NW,5.8,16.1,N/A,,Partly Cloudy,310,2008-12-07 07:54:00
3:54 AM,32.0,17.1,54,29.91,10.0,NW,10.4,18.4,N/A,,Clear,320,2008-12-07 08:54:00
4:54 AM,30.9,17.1,57,29.93,10.0,NNW,8.1,19.6,N/A,,Clear,330,2008-12-07 09:54:00
5:54 AM,30.9,16.0,54,29.95,10.0,North,10.4,-,N/A,,Clear,350,2008-12-07 10:54:00
6:54 AM,28.9,19.0,67,30.01,10.0,North,16.1,23.0,N/A,,Clear,360,2008-12-07 11:54:00
7:54 AM,28.0,18.0,66,30.03,10.0,North,21.9,33.4,N/A,,Clear,350,2008-12-07 12:54:00
8:54 AM,27.0,16.0,63,30.06,10.0,North,24.2,38.0,N/A,,Clear,350,2008-12-07 13:54:00
9:54 AM,27.0,14.0,58,30.09,10.0,North,25.3,32.2,N/A,,Clear,350,2008-12-07 14:54:00
10:54 AM,28.9,12.9,51,30.15,10.0,North,10.4,27.6,N/A,,Clear,350,2008-12-07 15:54:00
11:54 AM,30.0,12.0,47,30.16,10.0,NNW,15.0,23.0,N/A,,Clear,340,2008-12-07 16:54:00
12:54 PM,33.1,9.0,37,30.12,10.0,NNW,18.4,26.5,N/A,,Clear,340,2008-12-07 17:54:00
1:54 PM,34.0,7.0,32,30.14,10.0,NNW,11.5,19.6,N/A,,Clear,340,2008-12-07 18:54:00
2:54 PM,35.1,5.0,28,30.14,10.0,North,10.4,-,N/A,,Clear,350,2008-12-07 19:54:00
3:54 PM,35.1,5.0,28,30.16,10.0,North,9.2,-,N/A,,Clear,10,2008-12-07 20:54:00
4:54 PM,33.1,5.0,31,30.20,10.0,North,10.4,-,N/A,,Clear,360,2008-12-07 21:54:00
5:54 PM,30.0,7.0,38,30.20,10.0,NNW,10.4,-,N/A,,Clear,340,2008-12-07 22:54:00
6:54 PM,28.0,9.0,45,30.24,10.0,NNW,6.9,-,N/A,,Clear,330,2008-12-07 23:54:00
7:54 PM,27.0,10.0,49,30.25,10.0,North,3.5,-,N/A,,Clear,350,2008-12-08 00:54:00
8:54 PM,27.0,10.0,49,30.26,10.0,NNE,3.5,-,N/A,,Clear,20,2008-12-08 01:54:00
9:54 PM,24.1,10.9,57,30.26,10.0,NNW,4.6,-,N/A,,Clear,330,2008-12-08 02:54:00
10:54 PM,23.0,10.9,60,30.27,10.0,WNW,3.5,-,N/A,,Clear,300,2008-12-08 03:54:00
11:54 PM,23.0,10.9,60,30.28,10.0,Calm,Calm,-,N/A,,Clear,0,2008-12-08 04:54:00